Find Starlink 4313

NORAD ID: 53064 Int'l Des: 2022-077 Owner: SPXS Country: US Constellation: starlink operational
LEOCIRCULARRETROGRADESSO

現在のビュー

3D地球を読み込み中...

About Starlink 4313

Starlink 4313 (NORAD 53064) is a starlink constellation satellite (v1.5) launched Jul 11, 2022 by SPXS of US. It operates in LEO, CIRCULAR, RETROGRADE, SSO orbit with a mass of 297.00 kg.

次回通過

Passes for default location (London). Set your location on the main map for personalized predictions.

高度履歴

Loading altitude history...

軌道要素

1 53064U 22077X 26246.91668981 .00099757 00000-0 40923-2 0 9991
2 53064 97.2842 62.9001 0002151 110.5176 155.0769 15.23815954 5786
Epoch: Sep 3, 2026 • Age: 8 hours

現在のステータス

高度 506.5 km
遠地点 / 近地点 N/A
速度 7.61 km/s
衛星直下点 -29.71°S, 8.45°W
打ち上げ日 Jul 11, 2022
運用期間 4.1 years
タイプ internet

技術仕様

分類 Payload
質量 297.00 kg
乾燥質量 275.00 kg
総質量 297.00 kg
長さ 0.20 m
直径 2.80 m
スパン 9.00 m
形状 Box + pan
製造者 SPXS
バスタイプ Starlink
フェーズステータス In Orbit
所有者/国 SPXS/US

Most Searched